| time (UTC) | temp F | wind direction | speed MPH | gust MPH | rain 1hr in | rain 24hr in | rain mn in | humidity % | barometer mb |
| 20260508000041 | 48 | 317 | 0.0 | 2.0 | 0.00 | 0.05 | 0.01 | 49 | 1007.5 |
| 20260507235529 | 48 | 317 | 1.0 | 2.0 | 0.00 | 0.07 | 0.01 | 49 | 1007.4 |
| 20260507235042 | 48 | 309 | 0.0 | 3.0 | 0.00 | 0.07 | 0.01 | 47 | 1007.4 |
| 20260507234528 | 48 | 302 | 0.0 | 6.0 | 0.00 | 0.07 | 0.01 | 48 | 1007.4 |
| 20260507234057 | 48 | 321 | 2.0 | 7.0 | 0.00 | 0.07 | 0.01 | 46 | 1007.4 |
| 20260507233529 | 49 | 238 | 1.0 | 9.0 | 0.00 | 0.07 | 0.01 | 47 | 1007.4 |
| 20260507233035 | 49 | 273 | 2.0 | 9.0 | 0.00 | 0.07 | 0.01 | 47 | 1007.3 |
| 20260507232551 | 49 | 313 | 3.0 | 8.0 | 0.00 | 0.07 | 0.01 | 46 | 1007.2 |
| 20260507232024 | 49 | 318 | 0.0 | 5.0 | 0.00 | 0.07 | 0.01 | 49 | 1007.1 |
| 20260507231529 | 49 | 321 | 1.0 | 5.0 | 0.00 | 0.07 | 0.01 | 47 | 1007.1 |
| 20260507231043 | 50 | 227 | 1.0 | 3.0 | 0.00 | 0.07 | 0.01 | 48 | 1007.1 |
| 20260507230559 | 50 | 224 | 0.0 | 6.0 | 0.00 | 0.07 | 0.01 | 47 | 1007.1 |
| 20260507230025 | 50 | 221 | 3.0 | 8.0 | 0.00 | 0.07 | 0.01 | 44 | 1007.0 |
| 20260507225539 | 50 | 318 | 2.0 | 8.0 | 0.00 | 0.08 | 0.01 | 44 | 1007.0 |
| 20260507225033 | 50 | 338 | 2.0 | 8.0 | 0.00 | 0.08 | 0.01 | 46 | 1007.0 |
| 20260507224538 | 50 | 297 | 1.0 | 6.0 | 0.00 | 0.08 | 0.01 | 45 | 1007.0 |
| 20260507224052 | 50 | 325 | 3.0 | 6.0 | 0.00 | 0.08 | 0.01 | 44 | 1007.0 |
| 20260507223543 | 51 | 301 | 1.0 | 5.0 | 0.00 | 0.08 | 0.01 | 45 | 1007.0 |
| 20260507223029 | 51 | 355 | 1.0 | 4.0 | 0.00 | 0.08 | 0.01 | 46 | 1006.9 |
| 20260507222543 | 51 | 288 | 2.0 | 9.0 | 0.00 | 0.08 | 0.01 | 44 | 1006.9 |
| 20260507222036 | 51 | 111 | 4.0 | 9.0 | 0.00 | 0.08 | 0.01 | 44 | 1006.9 |
| 20260507221544 | 51 | 252 | 1.0 | 6.0 | 0.00 | 0.08 | 0.01 | 46 | 1006.9 |
| 20260507221033 | 52 | 234 | 1.0 | 7.0 | 0.00 | 0.08 | 0.01 | 47 | 1006.8 |
| 20260507220528 | 52 | 234 | 2.0 | 7.0 | 0.00 | 0.08 | 0.01 | 46 | 1006.9 |
| 20260507215527 | 52 | 331 | 4.0 | 10.0 | 0.00 | 0.11 | 0.01 | 44 | 1006.8 |
| 20260507215042 | 52 | 225 | 4.0 | 10.0 | 0.00 | 0.11 | 0.01 | 44 | 1006.8 |
| 20260507214527 | 52 | 288 | 2.0 | 9.0 | 0.00 | 0.11 | 0.01 | 43 | 1006.7 |
| 20260507214041 | 52 | 227 | 3.0 | 9.0 | 0.00 | 0.11 | 0.01 | 44 | 1006.8 |
| 20260507213536 | 52 | 214 | 3.0 | 7.0 | 0.00 | 0.11 | 0.01 | 45 | 1006.8 |
| 20260507213038 | 52 | 227 | 1.0 | 7.0 | 0.00 | 0.11 | 0.01 | 46 | 1006.7 |
| 20260507212532 | 53 | 333 | 1.0 | 6.0 | 0.00 | 0.11 | 0.01 | 45 | 1006.7 |
| 20260507212046 | 54 | 303 | 2.0 | 6.0 | 0.00 | 0.11 | 0.01 | 45 | 1006.7 |
| 20260507211553 | 54 | 225 | 2.0 | 9.0 | 0.00 | 0.11 | 0.01 | 46 | 1006.7 |
| 20260507211027 | 53 | 344 | 4.0 | 9.0 | 0.00 | 0.11 | 0.01 | 44 | 1006.5 |
| 20260507210543 | 53 | 308 | 3.0 | 14.0 | 0.00 | 0.11 | 0.01 | 43 | 1006.6 |
| 20260507210025 | 54 | 196 | 3.0 | 11.0 | 0.00 | 0.11 | 0.01 | 42 | 1006.5 |
| 20260507205540 | 53 | 318 | 3.0 | 12.0 | 0.00 | 0.13 | 0.01 | 44 | 1006.5 |
| 20260507205027 | 54 | 355 | 3.0 | 7.0 | 0.00 | 0.13 | 0.01 | 44 | 1006.5 |
| 20260507204541 | 54 | 239 | 2.0 | 12.0 | 0.00 | 0.13 | 0.01 | 44 | 1006.6 |
| 20260507204027 | 54 | 340 | 4.0 | 12.0 | 0.00 | 0.13 | 0.01 | 44 | 1006.6 |
| 20260507203608 | 54 | 268 | 4.0 | 9.0 | 0.00 | 0.13 | 0.01 | 43 | 1006.5 |
| 20260507203032 | 54 | 220 | 3.0 | 13.0 | 0.00 | 0.13 | 0.01 | 43 | 1006.5 |
| 20260507202603 | 53 | 29 | 6.0 | 13.0 | 0.00 | 0.13 | 0.01 | 42 | 1006.6 |
| 20260507202056 | 53 | 360 | 4.0 | 11.0 | 0.00 | 0.13 | 0.01 | 42 | 1006.8 |
| 20260507201549 | 54 | 338 | 4.0 | 9.0 | 0.00 | 0.13 | 0.01 | 43 | 1006.8 |
| 20260507201035 | 54 | 313 | 2.0 | 7.0 | 0.00 | 0.13 | 0.01 | 45 | 1006.7 |
| 20260507200549 | 54 | 82 | 2.0 | 10.0 | 0.00 | 0.13 | 0.01 | 44 | 1006.7 |
| 20260507200043 | 54 | 232 | 3.0 | 10.0 | 0.00 | 0.13 | 0.01 | 43 | 1006.8 |
| 20260507195529 | 54 | 247 | 2.0 | 7.0 | 0.00 | 0.21 | 0.01 | 44 | 1007.0 |
| 20260507195044 | 54 | 230 | 2.0 | 14.0 | 0.00 | 0.21 | 0.01 | 43 | 1006.8 |
| 20260507194534 | 54 | 317 | 2.0 | 14.0 | 0.00 | 0.21 | 0.01 | 43 | 1006.9 |
| 20260507194041 | 53 | 351 | 2.0 | 7.0 | 0.00 | 0.21 | 0.01 | 46 | 1007.0 |
| 20260507193535 | 53 | 304 | 5.0 | 12.0 | 0.00 | 0.21 | 0.01 | 42 | 1007.0 |
| 20260507193049 | 55 | 309 | 3.0 | 10.0 | 0.00 | 0.21 | 0.01 | 43 | 1007.1 |
| 20260507192535 | 55 | 122 | 2.0 | 12.0 | 0.00 | 0.21 | 0.01 | 43 | 1007.1 |
| 20260507192030 | 54 | 342 | 3.0 | 12.0 | 0.00 | 0.21 | 0.01 | 41 | 1007.0 |
| 20260507191544 | 54 | 198 | 3.0 | 7.0 | 0.00 | 0.21 | 0.01 | 44 | 1007.1 |
| 20260507191029 | 54 | 355 | 1.0 | 7.0 | 0.00 | 0.21 | 0.01 | 45 | 1007.1 |
| 20260507190523 | 54 | 306 | 2.0 | 10.0 | 0.00 | 0.21 | 0.01 | 40 | 1007.2 |
| 20260507190024 | 54 | 300 | 5.0 | 10.0 | 0.00 | 0.21 | 0.01 | 40 | 1007.3 |
| 20260507185537 | 55 | 327 | 6.0 | 10.0 | 0.00 | 0.26 | 0.01 | 41 | 1007.2 |
| 20260507185052 | 55 | 217 | 4.0 | 13.0 | 0.00 | 0.26 | 0.01 | 43 | 1007.3 |
| 20260507184544 | 54 | 307 | 2.0 | 13.0 | 0.00 | 0.26 | 0.01 | 43 | 1007.4 |
| 20260507184029 | 53 | 5 | 1.0 | 8.0 | 0.00 | 0.26 | 0.01 | 47 | 1007.2 |
| 20260507183524 | 53 | 327 | 4.0 | 7.0 | 0.00 | 0.26 | 0.01 | 45 | 1007.5 |
| 20260507183030 | 53 | 31 | 3.0 | 6.0 | 0.00 | 0.26 | 0.01 | 45 | 1007.4 |
| 20260507182610 | 53 | 315 | 3.0 | 9.0 | 0.00 | 0.26 | 0.01 | 44 | 1007.5 |
| 20260507182056 | 53 | 315 | 3.0 | 9.0 | 0.00 | 0.26 | 0.01 | 45 | 1007.7 |
| 20260507181530 | 54 | 304 | 3.0 | 8.0 | 0.00 | 0.26 | 0.01 | 44 | 1007.7 |
| 20260507181044 | 54 | 211 | 1.0 | 8.0 | 0.00 | 0.26 | 0.01 | 48 | 1007.6 |
| 20260507180558 | 53 | 225 | 2.0 | 10.0 | 0.00 | 0.26 | 0.01 | 46 | 1007.9 |
| 20260507180023 | 52 | 197 | 2.0 | 9.0 | 0.00 | 0.26 | 0.01 | 48 | 1008.1 |
| 20260507175538 | 52 | 227 | 3.0 | 10.0 | 0.00 | 0.33 | 0.01 | 46 | 1008.1 |
| 20260507175023 | 53 | 334 | 4.0 | 10.0 | 0.00 | 0.33 | 0.01 | 46 | 1008.2 |
| 20260507174536 | 53 | 242 | 3.0 | 7.0 | 0.00 | 0.33 | 0.01 | 47 | 1008.0 |
| 20260507174032 | 53 | 312 | 2.0 | 8.0 | 0.00 | 0.33 | 0.01 | 46 | 1008.1 |
| 20260507173534 | 53 | 260 | 2.0 | 9.0 | 0.00 | 0.33 | 0.01 | 47 | 1008.0 |
| 20260507173029 | 53 | 325 | 2.0 | 8.0 | 0.00 | 0.33 | 0.01 | 46 | 1008.0 |
| 20260507172605 | 53 | 182 | 4.0 | 8.0 | 0.00 | 0.33 | 0.01 | 44 | 1008.0 |
| 20260507172028 | 53 | 289 | 3.0 | 7.0 | 0.00 | 0.33 | 0.01 | 48 | 1008.0 |
| 20260507171523 | 53 | 326 | 3.0 | 7.0 | 0.00 | 0.33 | 0.01 | 46 | 1008.0 |
| 20260507171029 | 53 | 258 | 2.0 | 6.0 | 0.00 | 0.33 | 0.01 | 44 | 1008.0 |
| 20260507170541 | 53 | 228 | 2.0 | 13.0 | 0.00 | 0.33 | 0.01 | 49 | 1008.0 |
| 20260507170035 | 52 | 338 | 3.0 | 13.0 | 0.00 | 0.33 | 0.01 | 50 | 1008.0 |
| 20260507165542 | 52 | 341 | 3.0 | 13.0 | 0.00 | 0.40 | 0.01 | 46 | 1008.0 |
| 20260507165035 | 52 | 221 | 4.0 | 9.0 | 0.00 | 0.40 | 0.01 | 45 | 1008.1 |
| 20260507164549 | 52 | 329 | 2.0 | 15.0 | 0.00 | 0.40 | 0.01 | 49 | 1008.1 |
| 20260507164055 | 53 | 355 | 4.0 | 9.0 | 0.00 | 0.40 | 0.01 | 46 | 1008.1 |
| 20260507163527 | 52 | 209 | 2.0 | 11.0 | 0.00 | 0.40 | 0.01 | 52 | 1008.0 |
| 20260507163042 | 52 | 222 | 3.0 | 11.0 | 0.00 | 0.40 | 0.01 | 49 | 1008.1 |
| 20260507162524 | 52 | 306 | 3.0 | 10.0 | 0.00 | 0.40 | 0.01 | 49 | 1008.3 |
| 20260507162059 | 51 | 229 | 3.0 | 9.0 | 0.00 | 0.40 | 0.01 | 48 | 1008.5 |
| 20260507161532 | 51 | 317 | 3.0 | 9.0 | 0.00 | 0.40 | 0.01 | 50 | 1008.7 |
| 20260507161107 | 51 | 136 | 3.0 | 10.0 | 0.00 | 0.40 | 0.01 | 51 | 1008.8 |
| 20260507160531 | 51 | 38 | 3.0 | 10.0 | 0.00 | 0.40 | 0.01 | 48 | 1008.9 |
| 20260507160040 | 51 | 243 | 3.0 | 13.0 | 0.00 | 0.40 | 0.01 | 49 | 1008.8 |
| 20260507155523 | 51 | 5 | 3.0 | 11.0 | 0.00 | 0.40 | 0.01 | 48 | 1009.0 |
| 20260507155036 | 51 | 212 | 3.0 | 7.0 | 0.00 | 0.40 | 0.01 | 51 | 1008.9 |
| 20260507154528 | 50 | 215 | 1.0 | 7.0 | 0.00 | 0.40 | 0.01 | 52 | 1009.0 |
| 20260507154104 | 50 | 199 | 2.0 | 7.0 | 0.00 | 0.40 | 0.01 | 49 | 1009.1 |
| 20260507153557 | 50 | 351 | 4.0 | 10.0 | 0.00 | 0.40 | 0.01 | 47 | 1009.0 |
| 20260507153039 | 50 | 319 | 4.0 | 10.0 | 0.00 | 0.40 | 0.01 | 49 | 1009.2 |
| 20260507152534 | 50 | 313 | 3.0 | 8.0 | 0.00 | 0.40 | 0.01 | 47 | 1009.1 |
| 20260507152039 | 50 | 195 | 3.0 | 7.0 | 0.00 | 0.40 | 0.01 | 49 | 1009.1 |
| 20260507151534 | 50 | 267 | 2.0 | 9.0 | 0.00 | 0.40 | 0.01 | 52 | 1009.2 |
| 20260507151049 | 50 | 326 | 4.0 | 16.0 | 0.00 | 0.40 | 0.01 | 47 | 1009.2 |
| 20260507150556 | 50 | 337 | 4.0 | 16.0 | 0.00 | 0.40 | 0.01 | 48 | 1009.2 |
| 20260507150051 | 50 | 301 | 1.0 | 11.0 | 0.00 | 0.40 | 0.01 | 51 | 1009.3 |
| 20260507145523 | 50 | 266 | 4.0 | 11.0 | 0.00 | 0.40 | 0.01 | 48 | 1009.2 |
| 20260507145028 | 50 | 301 | 2.0 | 5.0 | 0.00 | 0.40 | 0.01 | 51 | 1009.2 |
| 20260507144539 | 49 | 234 | 1.0 | 6.0 | 0.00 | 0.40 | 0.01 | 54 | 1009.1 |
| 20260507144031 | 49 | 225 | 3.0 | 8.0 | 0.00 | 0.40 | 0.01 | 50 | 1009.1 |
| 20260507143559 | 49 | 230 | 3.0 | 12.0 | 0.00 | 0.40 | 0.01 | 53 | 1009.1 |
| 20260507143025 | 48 | 332 | 3.0 | 12.0 | 0.00 | 0.40 | 0.01 | 54 | 1009.3 |
| 20260507142539 | 48 | 225 | 2.0 | 9.0 | 0.00 | 0.40 | 0.01 | 56 | 1009.2 |
| 20260507142055 | 48 | 313 | 3.0 | 9.0 | 0.00 | 0.40 | 0.01 | 56 | 1009.4 |
| 20260507141549 | 48 | 329 | 2.0 | 9.0 | 0.00 | 0.40 | 0.01 | 55 | 1009.4 |
| 20260507141034 | 47 | 218 | 2.0 | 11.0 | 0.00 | 0.40 | 0.01 | 57 | 1009.4 |
| 20260507140547 | 47 | 180 | 2.0 | 8.0 | 0.00 | 0.40 | 0.01 | 57 | 1009.5 |
| 20260507140041 | 47 | 355 | 3.0 | 11.0 | 0.00 | 0.40 | 0.01 | 53 | 1009.5 |
| 20260507135547 | 47 | 325 | 4.0 | 11.0 | 0.00 | 0.40 | 0.01 | 55 | 1009.4 |
| 20260507135040 | 47 | 284 | 2.0 | 11.0 | 0.00 | 0.40 | 0.01 | 59 | 1009.3 |
| 20260507134536 | 47 | 332 | 2.0 | 9.0 | 0.00 | 0.40 | 0.01 | 59 | 1009.1 |
| 20260507134024 | 47 | 214 | 3.0 | 6.0 | 0.00 | 0.40 | 0.01 | 59 | 1009.1 |
| 20260507133537 | 46 | 315 | 2.0 | 6.0 | 0.00 | 0.40 | 0.01 | 60 | 1009.1 |
| 20260507133022 | 46 | 45 | 3.0 | 7.0 | 0.00 | 0.40 | 0.01 | 64 | 1009.2 |
| 20260507132557 | 46 | 201 | 3.0 | 7.0 | 0.00 | 0.40 | 0.01 | 62 | 1009.3 |
| 20260507132033 | 46 | 242 | 3.0 | 7.0 | 0.00 | 0.40 | 0.01 | 62 | 1009.4 |
| 20260507131547 | 46 | 327 | 3.0 | 7.0 | 0.00 | 0.40 | 0.01 | 63 | 1009.3 |
| 20260507131035 | 46 | 17 | 1.0 | 10.0 | 0.00 | 0.40 | 0.01 | 68 | 1009.1 |
| 20260507130548 | 45 | 321 | 3.0 | 10.0 | 0.00 | 0.40 | 0.01 | 68 | 1009.1 |
| 20260507130033 | 45 | 266 | 3.0 | 10.0 | 0.00 | 0.40 | 0.01 | 69 | 1009.0 |
| 20260507125543 | 45 | 313 | 3.0 | 7.0 | 0.00 | 0.40 | 0.01 | 68 | 1008.9 |
| 20260507125034 | 44 | 293 | 1.0 | 7.0 | 0.00 | 0.40 | 0.01 | 72 | 1008.9 |
| 20260507124540 | 44 | 301 | 4.0 | 10.0 | 0.00 | 0.40 | 0.01 | 73 | 1008.9 |
| 20260507124055 | 43 | 223 | 2.0 | 10.0 | 0.00 | 0.40 | 0.01 | 72 | 1008.9 |
| 20260507123529 | 43 | 258 | 3.0 | 6.0 | 0.00 | 0.40 | 0.01 | 75 | 1008.9 |
| 20260507122524 | 43 | 304 | 2.0 | 8.0 | 0.00 | 0.40 | 0.01 | 74 | 1008.9 |
| 20260507122039 | 43 | 347 | 3.0 | 8.0 | 0.00 | 0.40 | 0.01 | 75 | 1008.9 |
| 20260507121526 | 42 | 215 | 3.0 | 7.0 | 0.00 | 0.40 | 0.01 | 75 | 1008.9 |
| 20260507121041 | 42 | 238 | 4.0 | 8.0 | 0.00 | 0.40 | 0.01 | 75 | 1008.9 |
| 20260507120528 | 42 | 232 | 3.0 | 10.0 | 0.00 | 0.40 | 0.01 | 76 | 1008.9 |
| 20260507120023 | 42 | 307 | 1.0 | 10.0 | 0.00 | 0.40 | 0.01 | 77 | 1008.9 |
| 20260507115535 | 41 | 246 | 2.0 | 8.0 | 0.00 | 0.40 | 0.01 | 79 | 1008.9 |
| 20260507115028 | 41 | 323 | 2.0 | 8.0 | 0.00 | 0.40 | 0.01 | 79 | 1008.8 |
| 20260507114543 | 41 | 313 | 2.0 | 7.0 | 0.00 | 0.40 | 0.01 | 80 | 1008.9 |
| 20260507114036 | 41 | 355 | 2.0 | 8.0 | 0.00 | 0.40 | 0.01 | 80 | 1009.0 |
| 20260507113539 | 41 | 276 | 3.0 | 10.0 | 0.00 | 0.40 | 0.01 | 81 | 1008.8 |
| 20260507113033 | 40 | 318 | 2.0 | 10.0 | 0.00 | 0.40 | 0.01 | 81 | 1008.8 |
| 20260507112549 | 40 | 277 | 4.0 | 9.0 | 0.00 | 0.40 | 0.01 | 81 | 1008.8 |
| 20260507112053 | 40 | 333 | 2.0 | 7.0 | 0.00 | 0.40 | 0.01 | 82 | 1008.8 |
| 20260507111527 | 40 | 321 | 3.0 | 8.0 | 0.00 | 0.40 | 0.01 | 82 | 1008.7 |
| 20260507111027 | 40 | 317 | 2.0 | 8.0 | 0.00 | 0.40 | 0.01 | 83 | 1008.7 |
| 20260507110610 | 40 | 279 | 2.0 | 8.0 | 0.00 | 0.40 | 0.01 | 83 | 1008.6 |
| 20260507110035 | 40 | 286 | 2.0 | 6.0 | 0.00 | 0.40 | 0.01 | 85 | 1008.5 |
| 20260507105548 | 40 | 332 | 2.0 | 10.0 | 0.00 | 0.40 | 0.01 | 86 | 1008.4 |
| 20260507105040 | 40 | 238 | 4.0 | 10.0 | 0.00 | 0.40 | 0.01 | 85 | 1008.3 |
| 20260507104525 | 40 | 325 | 2.0 | 8.0 | 0.00 | 0.40 | 0.01 | 87 | 1008.2 |
| 20260507104040 | 40 | 304 | 2.0 | 8.0 | 0.00 | 0.40 | 0.01 | 88 | 1008.2 |
| 20260507103527 | 40 | 311 | 2.0 | 9.0 | 0.00 | 0.40 | 0.01 | 88 | 1008.1 |
| 20260507103101 | 40 | 306 | 2.0 | 9.0 | 0.00 | 0.40 | 0.01 | 88 | 1008.1 |
| 20260507102533 | 41 | 292 | 2.0 | 8.0 | 0.00 | 0.40 | 0.01 | 88 | 1008.0 |
| 20260507102047 | 41 | 303 | 2.0 | 8.0 | 0.00 | 0.40 | 0.01 | 88 | 1008.0 |
| 20260507101552 | 41 | 333 | 3.0 | 7.0 | 0.00 | 0.40 | 0.01 | 88 | 1008.0 |
| 20260507101025 | 41 | 319 | 3.0 | 10.0 | 0.00 | 0.40 | 0.01 | 88 | 1007.9 |
| 20260507100539 | 41 | 248 | 2.0 | 10.0 | 0.00 | 0.40 | 0.01 | 89 | 1007.8 |
| 20260507100025 | 41 | 302 | 2.0 | 7.0 | 0.00 | 0.40 | 0.01 | 89 | 1007.7 |
| 20260507095538 | 41 | 264 | 1.0 | 7.0 | 0.00 | 0.40 | 0.01 | 89 | 1007.7 |
| 20260507094525 | 42 | 309 | 2.0 | 7.0 | 0.00 | 0.40 | 0.01 | 89 | 1007.6 |
| 20260507094031 | 42 | 300 | 2.0 | 7.0 | 0.00 | 0.40 | 0.01 | 89 | 1007.6 |
| 20260507093526 | 42 | 320 | 2.0 | 5.0 | 0.00 | 0.40 | 0.01 | 89 | 1007.7 |
| 20260507093036 | 42 | 263 | 2.0 | 5.0 | 0.00 | 0.40 | 0.01 | 89 | 1007.8 |
| 20260507092539 | 42 | 337 | 2.0 | 3.0 | 0.00 | 0.40 | 0.01 | 90 | 1007.8 |
| 20260507092034 | 42 | 320 | 1.0 | 6.0 | 0.00 | 0.40 | 0.01 | 90 | 1007.8 |
| 20260507091548 | 42 | 319 | 2.0 | 6.0 | 0.00 | 0.40 | 0.01 | 90 | 1007.6 |
| 20260507091030 | 42 | 351 | 2.0 | 5.0 | 0.00 | 0.40 | 0.01 | 90 | 1007.6 |
| 20260507090545 | 42 | 226 | 2.0 | 4.0 | 0.00 | 0.40 | 0.01 | 90 | 1007.8 |
| 20260507090030 | 42 | 252 | 1.0 | 5.0 | 0.00 | 0.40 | 0.01 | 90 | 1007.9 |
| 20260507085525 | 42 | 259 | 1.0 | 7.0 | 0.00 | 0.40 | 0.01 | 90 | 1008.1 |
| 20260507085033 | 42 | 292 | 2.0 | 7.0 | 0.00 | 0.40 | 0.01 | 90 | 1007.9 |
| 20260507084527 | 43 | 329 | 1.0 | 5.0 | 0.00 | 0.40 | 0.01 | 90 | 1008.0 |
| 20260507084040 | 43 | 31 | 1.0 | 3.0 | 0.00 | 0.40 | 0.01 | 90 | 1007.9 |
| 20260507083525 | 43 | 297 | 0.0 | 4.0 | 0.00 | 0.40 | 0.01 | 90 | 1008.1 |
| 20260507083038 | 43 | 305 | 2.0 | 4.0 | 0.00 | 0.40 | 0.01 | 90 | 1007.9 |
| 20260507082553 | 43 | 290 | 0.0 | 3.0 | 0.00 | 0.40 | 0.01 | 91 | 1008.1 |
| 20260507082105 | 43 | 291 | 0.0 | 3.0 | 0.00 | 0.40 | 0.01 | 91 | 1008.0 |
| 20260507081039 | 43 | 146 | 0.0 | 2.0 | 0.00 | 0.40 | 0.01 | 91 | 1008.2 |
| 20260507080525 | 43 | 261 | 0.0 | 2.0 | 0.00 | 0.40 | 0.01 | 91 | 1008.1 |
| 20260507080039 | 43 | 240 | 0.0 | 5.0 | 0.00 | 0.40 | 0.01 | 91 | 1008.2 |
| 20260507075553 | 43 | 344 | 2.0 | 5.0 | 0.00 | 0.40 | 0.01 | 90 | 1008.1 |
| 20260507075041 | 43 | 228 | 2.0 | 5.0 | 0.01 | 0.40 | 0.01 | 91 | 1008.1 |
| 20260507074526 | 43 | 296 | 0.0 | 3.0 | 0.01 | 0.40 | 0.01 | 91 | 1008.2 |
| 20260507074041 | 43 | 296 | 1.0 | 3.0 | 0.01 | 0.40 | 0.01 | 91 | 1007.9 |
| 20260507073528 | 43 | 250 | 1.0 | 2.0 | 0.01 | 0.40 | 0.01 | 91 | 1008.1 |
| 20260507073041 | 44 | 222 | 0.0 | 5.0 | 0.01 | 0.40 | 0.01 | 91 | 1007.6 |
| 20260507072528 | 44 | 223 | 0.0 | 5.0 | 0.01 | 0.40 | 0.01 | 91 | 1007.7 |
| 20260507072040 | 44 | 244 | 1.0 | 3.0 | 0.01 | 0.40 | 0.01 | 92 | 1007.8 |
| 20260507071554 | 44 | 277 | 1.0 | 2.0 | 0.01 | 0.40 | 0.01 | 92 | 1007.5 |
| 20260507071047 | 44 | 251 | 0.0 | 7.0 | 0.01 | 0.40 | 0.01 | 92 | 1007.4 |
| 20260507070532 | 44 | 322 | 2.0 | 7.0 | 0.01 | 0.40 | 0.01 | 92 | 1007.1 |
| 20260507070025 | 44 | 219 | 0.0 | 5.0 | 0.01 | 0.40 | 0.01 | 92 | 1007.3 |
| 20260507065532 | 44 | 297 | 1.0 | 5.0 | 0.01 | 0.40 | 0.01 | 92 | 1007.3 |
| 20260507065028 | 44 | 297 | 1.0 | 4.0 | 0.00 | 0.39 | 0.00 | 92 | 1007.3 |
| 20260507064537 | 44 | 233 | 1.0 | 4.0 | 0.00 | 0.39 | 0.00 | 92 | 1007.2 |
| 20260507064023 | 44 | 333 | 2.0 | 4.0 | 0.00 | 0.39 | 0.00 | 92 | 1007.4 |
| 20260507063534 | 44 | 300 | 2.0 | 4.0 | 0.00 | 0.39 | 0.00 | 92 | 1007.5 |
| 20260507063047 | 44 | 320 | 1.0 | 3.0 | 0.00 | 0.39 | 0.00 | 92 | 1007.1 |
| 20260507062531 | 44 | 202 | 1.0 | 6.0 | 0.00 | 0.39 | 0.00 | 92 | 1007.1 |
| 20260507062047 | 44 | 17 | 2.0 | 6.0 | 0.00 | 0.39 | 0.00 | 92 | 1007.4 |
| 20260507061530 | 44 | 267 | 0.0 | 3.0 | 0.00 | 0.39 | 0.00 | 92 | 1007.3 |
| 20260507061025 | 44 | 236 | 0.0 | 2.0 | 0.00 | 0.39 | 0.00 | 92 | 1007.0 |
| 20260507060532 | 44 | 236 | 0.0 | 4.0 | 0.00 | 0.39 | 0.00 | 92 | 1007.0 |
| 20260507060023 | 44 | 236 | 1.0 | 4.0 | 0.00 | 0.39 | 0.00 | 91 | 1007.1 |
| 20260507055536 | 45 | 298 | 0.0 | 2.0 | 0.00 | 0.39 | 0.00 | 92 | 1007.0 |
| 20260507055107 | 45 | 299 | 0.0 | 2.0 | 0.00 | 0.39 | 0.00 | 92 | 1007.2 |
| 20260507054529 | 45 | 301 | 0.0 | 3.0 | 0.00 | 0.39 | 0.00 | 92 | 1007.4 |
| 20260507054043 | 45 | 234 | 0.0 | 3.0 | 0.00 | 0.39 | 0.00 | 92 | 1007.4 |
| 20260507053555 | 45 | 232 | 1.0 | 3.0 | 0.00 | 0.39 | 0.00 | 92 | 1007.2 |
| 20260507053049 | 45 | 294 | 0.0 | 3.0 | 0.00 | 0.39 | 0.00 | 92 | 1007.3 |
| 20260507052542 | 45 | 277 | 0.0 | 1.0 | 0.00 | 0.39 | 0.00 | 92 | 1007.7 |
| 20260507052027 | 45 | 5 | 0.0 | 2.0 | 0.00 | 0.39 | 0.00 | 92 | 1007.8 |
| 20260507051601 | 45 | 5 | 0.0 | 3.0 | 0.00 | 0.39 | 0.00 | 92 | 1007.6 |
| 20260507051035 | 45 | 5 | 0.0 | 4.0 | 0.00 | 0.39 | 0.00 | 92 | 1007.7 |
| 20260507050521 | 45 | 262 | 0.0 | 3.0 | 0.00 | 0.39 | 0.00 | 92 | 1007.7 |
| 20260507050035 | 45 | 265 | 1.0 | 3.0 | 0.00 | 0.39 | 0.00 | 92 | 1007.7 |
| 20260507045522 | 45 | 228 | 0.0 | 2.0 | 0.00 | 0.39 | 0.00 | 92 | 1007.7 |
| 20260507045057 | 45 | 163 | 0.0 | 4.0 | 0.00 | 0.39 | 0.00 | 92 | 1007.8 |
| 20260507044551 | 45 | 28 | 0.0 | 4.0 | 0.00 | 0.39 | 0.00 | 92 | 1008.0 |
| 20260507044024 | 45 | 296 | 1.0 | 4.0 | 0.00 | 0.39 | 0.00 | 92 | 1008.0 |
| 20260507043527 | 45 | 211 | 1.0 | 3.0 | 0.00 | 0.39 | 0.00 | 91 | 1007.9 |
| 20260507043039 | 45 | 182 | 0.0 | 2.0 | 0.00 | 0.39 | 0.00 | 92 | 1007.8 |
| 20260507042553 | 45 | 204 | 1.0 | 3.0 | 0.00 | 0.39 | 0.00 | 91 | 1007.8 |
| 20260507042047 | 45 | 244 | 1.0 | 5.0 | 0.00 | 0.39 | 0.00 | 92 | 1007.8 |
| 20260507041532 | 45 | 184 | 2.0 | 6.0 | 0.00 | 0.39 | 0.00 | 92 | 1007.7 |
| 20260507041047 | 45 | 16 | 2.0 | 6.0 | 0.00 | 0.39 | 0.00 | 92 | 1007.5 |
| 20260507040533 | 45 | 336 | 0.0 | 4.0 | 0.00 | 0.39 | 0.00 | 92 | 1007.4 |
| 20260507040027 | 46 | 275 | 1.0 | 4.0 | 0.00 | 0.39 | 0.00 | 92 | 1007.6 |
| 20260507035602 | 46 | 291 | 1.0 | 4.0 | 0.00 | 0.39 | 0.39 | 92 | 1007.3 |
| 20260507035027 | 46 | 335 | 2.0 | 5.0 | 0.00 | 0.39 | 0.39 | 92 | 1007.2 |
| 20260507034522 | 46 | 223 | 0.0 | 7.0 | 0.00 | 0.39 | 0.39 | 92 | 1007.4 |
| 20260507034038 | 46 | 266 | 3.0 | 7.0 | 0.00 | 0.39 | 0.39 | 91 | 1007.5 |
| 20260507033521 | 46 | 179 | 1.0 | 5.0 | 0.00 | 0.39 | 0.39 | 91 | 1007.4 |
| 20260507033035 | 46 | 315 | 2.0 | 5.0 | 0.00 | 0.39 | 0.39 | 91 | 1007.2 |
| 20260507032541 | 46 | 299 | 1.0 | 4.0 | 0.00 | 0.39 | 0.39 | 91 | 1007.4 |
| 20260507032055 | 46 | 216 | 2.0 | 4.0 | 0.00 | 0.39 | 0.39 | 91 | 1007.3 |
| 20260507031529 | 46 | 298 | 2.0 | 5.0 | 0.00 | 0.39 | 0.39 | 91 | 1007.5 |
| 20260507031045 | 46 | 315 | 1.0 | 5.0 | 0.00 | 0.39 | 0.39 | 91 | 1007.6 |
| 20260507030529 | 46 | 283 | 1.0 | 5.0 | 0.00 | 0.39 | 0.39 | 91 | 1007.6 |
| 20260507030043 | 46 | 295 | 2.0 | 5.0 | 0.00 | 0.39 | 0.39 | 91 | 1007.6 |
| 20260507025528 | 46 | 297 | 2.0 | 6.0 | 0.00 | 0.39 | 0.39 | 91 | 1007.6 |
| 20260507025022 | 46 | 330 | 2.0 | 7.0 | 0.00 | 0.39 | 0.39 | 91 | 1007.6 |
| 20260507024550 | 46 | 321 | 3.0 | 7.0 | 0.00 | 0.39 | 0.39 | 91 | 1007.4 |
| 20260507024033 | 46 | 277 | 2.0 | 5.0 | 0.01 | 0.39 | 0.39 | 91 | 1007.4 |
| 20260507023528 | 46 | 257 | 2.0 | 6.0 | 0.01 | 0.39 | 0.39 | 91 | 1007.4 |
| 20260507023043 | 46 | 300 | 1.0 | 6.0 | 0.01 | 0.39 | 0.39 | 91 | 1007.5 |
| 20260507022529 | 46 | 298 | 2.0 | 6.0 | 0.01 | 0.39 | 0.39 | 91 | 1007.4 |
| 20260507022044 | 46 | 324 | 2.0 | 7.0 | 0.01 | 0.39 | 0.39 | 91 | 1007.5 |
| 20260507021539 | 46 | 242 | 1.0 | 7.0 | 0.02 | 0.39 | 0.39 | 91 | 1007.5 |
| 20260507021023 | 47 | 221 | 2.0 | 6.0 | 0.02 | 0.39 | 0.39 | 90 | 1007.6 |
| 20260507020538 | 47 | 317 | 1.0 | 5.0 | 0.02 | 0.39 | 0.39 | 90 | 1007.6 |
| 20260507020023 | 47 | 331 | 2.0 | 5.0 | 0.03 | 0.39 | 0.39 | 91 | 1007.6 |
| 20260507015535 | 47 | 267 | 2.0 | 5.0 | 0.03 | 0.39 | 0.39 | 90 | 1007.5 |
| 20260507015049 | 47 | 223 | 1.0 | 5.0 | 0.03 | 0.39 | 0.39 | 90 | 1007.6 |
| 20260507014604 | 47 | 280 | 1.0 | 5.0 | 0.03 | 0.39 | 0.39 | 90 | 1007.4 |
| 20260507014030 | 47 | 231 | 1.0 | 5.0 | 0.02 | 0.38 | 0.38 | 90 | 1007.3 |
| 20260507013524 | 47 | 313 | 0.0 | 5.0 | 0.03 | 0.38 | 0.38 | 90 | 1007.3 |
| 20260507013059 | 48 | 202 | 1.0 | 5.0 | 0.03 | 0.38 | 0.38 | 90 | 1007.3 |
| 20260507012542 | 48 | 236 | 1.0 | 5.0 | 0.03 | 0.38 | 0.38 | 90 | 1007.4 |
| 20260507012037 | 48 | 322 | 0.0 | 5.0 | 0.03 | 0.38 | 0.38 | 90 | 1007.6 |
| 20260507011545 | 48 | 276 | 2.0 | 5.0 | 0.02 | 0.37 | 0.37 | 89 | 1007.5 |
| 20260507011030 | 49 | 172 | 1.0 | 5.0 | 0.02 | 0.37 | 0.37 | 90 | 1007.5 |
| 20260507010544 | 49 | 229 | 1.0 | 5.0 | 0.02 | 0.37 | 0.37 | 90 | 1007.2 |
| 20260507010027 | 49 | 229 | 1.0 | 4.0 | 0.01 | 0.36 | 0.36 | 90 | 1007.2 |
| 20260507005540 | 50 | 262 | 1.0 | 5.0 | 0.01 | 0.36 | 0.36 | 90 | 1006.9 |
| 20260507005026 | 50 | 355 | 1.0 | 10.0 | 0.01 | 0.36 | 0.36 | 90 | 1006.8 |
| 20260507004539 | 50 | 238 | 1.0 | 4.0 | 0.02 | 0.36 | 0.36 | 90 | 1006.6 |
| 20260507004033 | 50 | 290 | 1.0 | 4.0 | 0.02 | 0.36 | 0.36 | 90 | 1006.5 |
| 20260507003608 | 51 | 273 | 0.0 | 3.0 | 0.01 | 0.35 | 0.35 | 90 | 1006.6 |
| 20260507003034 | 51 | 287 | 0.0 | 3.0 | 0.02 | 0.35 | 0.35 | 90 | 1006.3 |
| 20260507002528 | 51 | 338 | 1.0 | 5.0 | 0.02 | 0.35 | 0.35 | 90 | 1006.1 |
| 20260507002103 | 51 | 301 | 3.0 | 5.0 | 0.02 | 0.35 | 0.35 | 89 | 1006.1 |
| 20260507001528 | 51 | 252 | 1.0 | 3.0 | 0.02 | 0.35 | 0.35 | 90 | 1006.4 |
| 20260507001041 | 51 | 211 | 1.0 | 3.0 | 0.02 | 0.35 | 0.35 | 89 | 1006.4 |
| 20260507000525 | 52 | 262 | 0.0 | 4.0 | 0.02 | 0.35 | 0.35 | 89 | 1006.3 |